File timestamp: Tue Aug 16 00:00:00 2016, Internal temp: 19.4549560546875
1471305601, 0.125058323144913, 0.0151115674525499, 0.00208134157583117, 33810, 32860, 23197, 140.150405883789
1471305602, 0.118194177746773, 0.0150482961907983, 0.00234624277800322, 33810, 32870, 23205, NaN
1471305603, 0.109070047736168, 0.0146391019225121, 0.00182002619840205, 33807, 32857, 23212, NaN
1471305604, 0.0988606512546539, 0.0143889728933573, 0.00158934993669391, 33810, 32867, 23211, NaN
1471305605, 0.0885688662528992, 0.0144645143300295, 0.00137710699345917, 33810, 32860, 23200, NaN
1471305606, 0.078063040971756, 0.0147199500352144, 0.00236973282881081, 33808, 32840, 23199, NaN
1471305607, 0.0673947036266327, 0.0141775216907263, 0.00226758304052055, 33806, 32858, 23211, NaN
1471305608, 0.0559903904795647, 0.014438197016716, 0.00256201042793691, 33807, 32848, 23198, NaN
1471305609, 0.0448561683297157, 0.0147897182032466, 0.00285773817449808, 33809, 32864, 23203, NaN
1471305610, 0.0320557355880737, 0.0143979666754603, 0.00249172165058553, 33804, 32864, 23197, NaN
1471305611, 0.0187052469700575, 0.0142552191391587, 0.00290699140168726, 33811, 32872, 23202, NaN
1471305612, 0.00479442067444324, 0.0138713363558054, 0.00242971628904343, 33817, 32857, 23203, NaN
1471305612, -0.00889380369335413, 0.0139152649790049, 0.00242443173192441, 33826, 32868, 23194, NaN
1471305613.008, -0.0209653656929731, 0.0140061425045133, 0.00228862906806171, 33810, 32856, 23188, NaN
1471305614.008, -0.0325793474912643, 0.0144312735646963, 0.00259427190758288, 33803, 32864, 23198, NaN
1471305615.008, -0.0444845370948315, 0.0146677559241652, 0.00332970824092627, 33817, 32857, 23195, NaN
1471305616.008, -0.05488221347332, 0.0150392772629857, 0.00363365886732936, 33817, 32846, 23195, NaN
1471305616.008, -0.0635991767048836, 0.0148400412872434, 0.00316221569664776, 33806, 32856, 23210, NaN
1471305617.016, -0.0707623362541199, 0.0143116591498256, 0.00274642021395266, 33809, 32873, 23204, NaN
1471305618.016, -0.0772647261619568, 0.0141924386844039, 0.0022940116468817, 33813, 32867, 23194, NaN
1471305619.016, -0.0803546756505966, 0.0148385390639305, 0.00233131228014827, 33815, 32860, 23200, NaN
1471305620.016, -0.0742376148700714, 0.0145642589777708, 0.00221719150431454, 33808, 32851, 23204, NaN
1471305620.016, -0.0568412914872169, 0.0145237855613232, 0.00272915069945157, 33818, 32873, 23203, NaN
1471305621.022, -0.0280270464718342, 0.0138227874413133, 0.00303297047503293, 33794, 32869, 23215, NaN
1471305622.022, 0.0112182125449181, 0.0135946879163384, 0.00274010235443711, 33803, 32868, 23194, NaN
1471305623.022, 0.0580523237586021, 0.0143703641369939, 0.00200371351093054, 33806, 32854, 23199, NaN
1471305624.022, 0.109947793185711, 0.0151870381087065, 0.00200903415679932, 33805, 32852, 23204, NaN
1471305625.022, 0.163434758782387, 0.015220039524138, 0.00180854252539575, 33817, 32859, 23204, NaN
1471305626.022, 0.215489655733109, 0.0146740423515439, 0.00220810575410724, 33799, 32864, 23200, NaN
1471305627.022, 0.18903411924839, 0.0140570132061839, 0.00216922955587506, 33824, 32860, 23197, NaN
1471305628.022, 0.0992205440998077, 0.0139209758490324, 0.00264651421457529, 33810, 32854, 23204, NaN
1471305629.022, 0.0243591871112585, 0.0145140737295151, 0.00286181713454425, 33810, 32877, 23205, NaN
1471305630.022, -0.0368930958211422, 0.0154423722997308, 0.00217159907333553, 33797, 32856, 23217, NaN
1471305631.022, -0.0858413949608803, 0.0160409994423389, 0.000968840031418949, 33805, 32873, 23212, NaN
1471305632.022, -0.123747497797012, 0.015891807153821, 0.000302882632240653, 33804, 32850, 23212, NaN
1471305633.022, -0.151824742555618, 0.0162485800683498, 5.98280676058494e-05, 33806, 32847, 23204, NaN
1471305634.022, -0.171233206987381, 0.0175464674830437, 0.000242683250689879, 33827, 32852, 23198, NaN
1471305635.022, -0.183075413107872, 0.0172286536544561, 0.000516514701303095, 33824, 32858, 23177, NaN
1471305636.022, -0.188392490148544, 0.0177680570632219, 0.000481645634863526, 33830, 32860, 23193, NaN
1471305637.022, -0.188161209225655, 0.0181268397718668, 1.10886940092314e-05, 33822, 32847, 23201, NaN
1471305638.022, -0.183291539549828, 0.0181298926472664, -0.000553426332771778, 33809, 32852, 23201, NaN
1471305639.022, -0.174625068902969, 0.017523530870676, -0.00149798055645078, 33811, 32848, 23194, NaN
1471305640.03, -0.162934079766273, 0.0181556809693575, -0.0022069166880101, 33805, 32858, 23209, NaN
1471305641.03, -0.148921400308609, 0.0186949521303177, -0.00259470217861235, 33806, 32860, 23201, NaN
1471305642.03, -0.133220925927162, 0.0192913748323917, -0.00264703924767673, 33814, 32869, 23193, NaN
1471305643.03, -0.116398729383945, 0.0184985101222992, -0.00261871702969074, 33803, 32854, 23205, NaN
1471305643.03, -0.0989548340439796, 0.0184425339102745, -0.00231087789870799, 33801, 32863, 23207, NaN
1471305644.038, -0.0813254714012146, 0.0188850648701191, -0.00220904219895601, 33807, 32859, 23198, NaN
1471305645.038, -0.063885785639286, 0.0193910375237465, -0.0016785537591204, 33817, 32838, 23196, NaN
1471305646.038, -0.046952947974205, 0.0192343480885029, -0.000838101201225072, 33820, 32866, 23201, NaN
1471305647.038, -0.0307895857840776, 0.0192102640867233, 9.35730058699846e-05, 33822, 32863, 23204, NaN
1471305647.038, -0.0156074641272426, 0.0192086510360241, -8.86048510437831e-05, 33814, 32862, 23208, NaN
1471305648.044, -0.00157134735491127, 0.0192308612167835, -0.000234305567573756, 33807, 32855, 23207, NaN
1471305649.044, 0.0111970119178295, 0.0195803642272949, 0.000505782489199191, 33810, 32864, 23218, NaN
1471305650.044, 0.0226148199290037, 0.0190633051097393, 0.000974720634985715, 33801, 32855, 23198, NaN
1471305651.044, 0.032634187489748, 0.0188405830413103, 0.000855164311360568, 33824, 32865, 23189, NaN
1471305652.044, 0.0412381067872047, 0.0195046607404947, 0.000711975968442857, 33812, 32860, 23195, NaN
1471305653.044, 0.0484365373849869, 0.0189363826066256, 0.000849281321279705, 33811, 32851, 23202, NaN
1471305654.044, 0.0542119257152081, 0.019603043794632, 0.00151539826765656, 33804, 32862, 23208, NaN
1471305655.044, 0.0545123219490051, 0.019744535908103, 0.000541440444067121, 33808, 32854, 23206, 138.435440063477
1471305656.044, 0.0498815700411797, 0.0196177698671818, -0.000203053816221654, 33806, 32861, 23206, NaN
1471305657.044, 0.0429302044212818, 0.0201331675052643, 0.000185022901860066, 33821, 32850, 23199, NaN
1471305658.044, 0.0357364565134048, 0.0198924355208874, -0.000808441080152988, 33813, 32856, 23201, NaN
1471305659.044, 0.0279708076268435, 0.0204332415014505, -0.000627244706265628, 33813, 32859, 23204, NaN
1471305660.044, 0.02050038613379, 0.021515442058444, -0.000176738147274591, 33816, 32857, 23189, NaN
1471305661.044, 0.0144656132906675, 0.0221398621797562, 0.000426451093517244, 33811, 32858, 23196, NaN
1471305662.044, 0.0104886619374156, 0.0216878559440374, 0.000737016787752509, 33805, 32854, 23209, NaN
1471305663.044, 0.00801706034690142, 0.0212650895118713, 0.00111963832750916, 33823, 32871, 23210, NaN
1471305664.044, 0.00742012541741133, 0.0204601958394051, 0.00118815095629543, 33806, 32857, 23210, NaN
1471305665.044, 0.00642545055598021, 0.0199891906231642, 0.00194701424334198, 33818, 32856, 23197, NaN
1471305666.052, 0.00727337365970016, 0.0202259253710508, 0.00173521449323744, 33814, 32858, 23191, NaN
1471305666.052, 0.00960793625563383, 0.0204204376786947, 0.00161842361558229, 33820, 32853, 23199, NaN
1471305667.06, 0.0140278460457921, 0.0199541505426168, 0.0017303810454905, 33802, 32869, 23208, NaN
1471305668.06, 0.0196725111454725, 0.020528893917799, 0.00232238601893187, 33812, 32862, 23194, NaN
1471305669.06, 0.0254445169121027, 0.0204913653433323, 0.00177794101182371, 33814, 32854, 23195, NaN
1471305670.06, 0.0312652215361595, 0.0194484144449234, 0.0014566812897101, 33808, 32865, 23207, NaN
1471305670.06, 0.0370316915214062, 0.0191023983061314, 0.00154357519932091, 33798, 32868, 23199, NaN
1471305671.068, 0.0427311323583126, 0.0186386294662952, 0.00115840218495578, 33805, 32873, 23208, NaN
1471305672.068, 0.0474549196660519, 0.0190346390008926, -0.000208730867598206, 33807, 32855, 23203, NaN
1471305673.068, 0.0515347830951214, 0.0188044812530279, -0.000368382723536342, 33804, 32869, 23208, NaN
1471305674.068, 0.0547832064330578, 0.0188790094107389, -4.84300908283331e-05, 33813, 32864, 23204, NaN
1471305674.068, 0.057714406400919, 0.0183692965656519, 0.000369448767742142, 33808, 32860, 23196, NaN
1471305675.074, 0.0596905052661896, 0.0181820280849934, 0.000504146504681557, 33801, 32853, 23196, NaN
1471305676.074, 0.0599330924451351, 0.0176233798265457, -0.000636012526229024, 33809, 32863, 23196, NaN
1471305677.074, 0.0603615343570709, 0.0177594665437937, -0.000523702881764621, 33809, 32860, 23200, NaN
1471305678.074, 0.060128565877676, 0.0183906033635139, -0.000160905037773773, 33809, 32865, 23205, NaN
1471305678.074, 0.0589185915887356, 0.0186930522322655, 0.000618000922258943, 33802, 32864, 23210, NaN
1471305679.078, 0.0558740086853504, 0.0181193947792053, 0.000160026698722504, 33801, 32877, 23205, NaN
1471305680.078, 0.0516192428767681, 0.018761619925499, -7.75986627559178e-05, 33820, 32868, 23195, NaN
1471305681.078, 0.0479271560907364, 0.0195026509463787, 0.00021340447710827, 33810, 32867, 23222, NaN
1471305682.078, 0.0441886559128761, 0.0193933453410864, 0.000344431347912177, 33808, 32865, 23212, NaN
1471305683.078, 0.0386861525475979, 0.0201526451855898, 1.17157760541886e-05, 33813, 32871, 23202, NaN
1471305684.078, 0.0330227091908455, 0.0202214736491442, -0.000125583377666771, 33806, 32859, 23197, NaN
1471305685.078, 0.0269518457353115, 0.020501721650362, -0.000376718235202134, 33823, 32860, 23196, NaN
1471305686.078, 0.0206717252731323, 0.0211517699062824, -0.000424639467382804, 33813, 32862, 23216, NaN
1471305687.078, 0.0149666471406817, 0.0210543572902679, -1.18891839520074e-05, 33801, 32858, 23204, NaN
1471305688.078, 0.00949371419847012, 0.0212342571467161, -0.000588630384299904, 33807, 32853, 23207, NaN
1471305689.078, 0.00350330397486687, 0.0209677014499903, -0.000819088600110263, 33801, 32852, 23208, NaN
1471305690.078, -0.00207199947908521, 0.0212001111358404, -0.00106342905201018, 33810, 32856, 23206, NaN
1471305691.088, -0.00634844275191426, 0.0213477332144976, -0.000948605593293905, 33815, 32865, 23206, NaN
1471305691.088, -0.0108643472194672, 0.0217858776450157, -0.00149526435416192, 33811, 32854, 23188, NaN
1471305692.098, -0.0153465205803514, 0.022102776914835, -0.00192278588656336, 33807, 32863, 23211, NaN
1471305693.098, -0.019107922911644, 0.021838553249836, -0.00100921210832894, 33818, 32851, 23195, NaN
1471305694.098, -0.0222978424280882, 0.0222058333456516, -0.00098219036590308, 33801, 32863, 23198, NaN
1471305695.098, -0.0258565414696932, 0.0227052047848701, -0.00102352420799434, 33801, 32858, 23199, NaN
1471305695.098, -0.0294251125305891, 0.0236375592648983, -0.000502213835716248, 33811, 32867, 23201, NaN
1471305696.106, -0.0333425402641296, 0.0240412559360266, -8.08064869488589e-05, 33819, 32864, 23200, NaN
1471305697.106, -0.0358903408050537, 0.024333730340004, 0.000396740972064435, 33800, 32860, 23202, NaN
1471305698.106, -0.0367299616336823, 0.0245068855583668, 0.000891656498424709, 33813, 32855, 23202, NaN
1471305699.106, -0.0366571471095085, 0.0242567844688892, 0.000450272113084793, 33819, 32853, 23200, NaN
1471305700.106, -0.0369556471705437, 0.0240775533020496, 0.000582558917813003, 33822, 32869, 23190, NaN
1471305701.106, -0.0366515889763832, 0.0245167464017868, 0.000714787223841995, 33797, 32854, 23216, NaN
1471305702.106, -0.0355265997350216, 0.0247647725045681, 9.58181481109932e-05, 33832, 32849, 23193, NaN
1471305703.106, -0.032098900526762, 0.0246607083827257, 0.000133876863401383, 33813, 32867, 23201, NaN
1471305704.106, -0.0278777405619621, 0.0244156830012798, -7.64617288950831e-05, 33807, 32854, 23207, NaN
1471305705.106, -0.0244939271360636, 0.0245804768055677, 0.000337121571647003, 33809, 32862, 23207, NaN
1471305706.106, -0.0218046344816685, 0.0252627842128277, -0.000115430411824491, 33813, 32865, 23195, NaN
1471305707.106, -0.019990062341094, 0.0246488302946091, 0.000566608214285225, 33802, 32868, 23206, NaN
1471305708.106, -0.0177752766758204, 0.0244276020675898, 0.00026594870723784, 33798, 32851, 23208, NaN
1471305709.106, -0.014468532986939, 0.0245437026023865, -0.000302980421110988, 33808, 32858, 23204, 137.647537231445
1471305710.106, -0.0114821111783385, 0.0247011054307222, -0.000241815461777151, 33807, 32854, 23203, NaN
1471305711.106, -0.00862030033022165, 0.0251262970268726, -0.000226679578190669, 33815, 32865, 23199, NaN
1471305712.106, -0.00590813253074884, 0.0258377902209759, -0.000404085119953379, 33811, 32861, 23206, NaN
1471305713.106, -0.00439350586384535, 0.0259083714336157, -0.0011119965929538, 33820, 32855, 23198, NaN
1471305714.106, -0.00415168236941099, 0.0255607571452856, -0.00111887324601412, 33807, 32857, 23207, NaN
1471305715.106, -0.00468461634591222, 0.0250730346888304, -0.000857872306369245, 33806, 32861, 23205, NaN
1471305716.106, -0.00478116748854518, 0.0245238710194826, -0.00132031098473817, 33821, 32866, 23183, NaN
1471305717.106, -0.00472423946484923, 0.024419454857707, -0.00122911029029638, 33811, 32864, 23203, NaN
1471305718.106, -0.00344819505698979, 0.024972015991807, -0.001153749297373, 33807, 32876, 23198, NaN
1471305719.116, -0.00177358323708177, 0.0259949304163456, -0.00104053353425115, 33819, 32871, 23204, NaN
1471305719.116, -0.000707687635440379, 0.0258742310106754, -0.000237719228607602, 33814, 32855, 23204, NaN
1471305720.124, 0.000194647873286158, 0.0257742609828711, -0.00029324647039175, 33812, 32852, 23200, NaN
1471305721.124, 0.00155936286319047, 0.026020672172308, -0.000745966623071581, 33806, 32851, 23204, NaN
1471305722.124, 0.00298914965242147, 0.0251081250607967, 5.04472991451621e-05, 33810, 32861, 23197, NaN
1471305723.124, 0.00484995963051915, 0.0244216490536928, -0.000336260796757415, 33806, 32857, 23212, NaN
1471305723.124, 0.00564708979800344, 0.0247685443609953, -0.000106055071228184, 33805, 32859, 23192, NaN
1471305724.132, 0.00511822011321783, 0.0258546974509954, 6.91589957568794e-05, 33805, 32862, 23210, NaN
1471305725.132, 0.00512987561523914, 0.0261359922587872, -0.000152371285366826, 33805, 32848, 23208, NaN
1471305726.132, 0.00589551636949182, 0.0262088645249605, 0.000227336859097704, 33807, 32863, 23199, NaN
1471305727.132, 0.00683028530329466, 0.0260800775140524, 0.00023318559397012, 33809, 32867, 23199, NaN
1471305727.132, 0.00776878884062171, 0.0255001746118069, 0.000433919078204781, 33800, 32859, 23203, NaN
1471305728.138, 0.00893397256731987, 0.0253828912973404, -0.000333856791257858, 33797, 32857, 23208, NaN
1471305729.138, 0.00916756503283978, 0.0247038211673498, -0.00017769361147657, 33819, 32862, 23198, NaN
1471305730.138, 0.00865808315575123, 0.0247010234743357, 0.000981328426860273, 33814, 32862, 23199, NaN
1471305731.138, 0.0075444090180099, 0.0240867640823126, 0.000274708610959351, 33806, 32861, 23194, NaN
1471305731.138, 0.0061113778501749, 0.0241393521428108, 0.000260173954302445, 33820, 32857, 23204, NaN
1471305732.142, 0.004977454431355, 0.023989150300622, 4.00692952098325e-05, 33805, 32872, 23209, NaN
1471305733.142, 0.00416755536571145, 0.0243944600224495, 0.0002590311341919, 33814, 32866, 23198, NaN
1471305734.122, 0.00466178311035037, 0.0249500758945942, -6.06820685788989e-05, 33804, 32863, 23199, NaN
1471305735.122, 0.00657730177044868, 0.0248511601239443, 0.000152494059875607, 33809, 32854, 23192, NaN
1471305736.122, 0.00782304722815752, 0.0238998550921679, 0.000692824425641447, 33807, 32858, 23200, NaN
1471305737.122, 0.00866955146193504, 0.0230440218001604, 0.000137924216687679, 33823, 32857, 23194, NaN
1471305738.122, 0.0088108591735363, 0.0221645310521126, -0.000161699499585666, 33807, 32840, 23204, NaN
1471305739.122, 0.00826167408376932, 0.0206545982509851, -0.000459709583083168, 33805, 32862, 23201, NaN
1471305740.122, 0.00615184940397739, 0.0203905329108238, -0.00062130019068718, 33819, 32870, 23191, NaN
1471305741.122, 0.00389056652784348, 0.021084601059556, -0.00098334951326251, 33802, 32860, 23203, NaN
1471305742.122, 0.00192221160978079, 0.0211199168115854, -0.00192552246153355, 33810, 32850, 23198, NaN
1471305743.122, -0.000381117133656517, 0.0215467344969511, -0.00200391164980829, 33808, 32861, 23198, NaN
1471305744.132, -0.00281906756572425, 0.0212656166404486, -0.00224570278078318, 33817, 32865, 23179, NaN
1471305744.132, -0.00388502376154065, 0.0215865466743708, -0.00233466294594109, 33816, 32860, 23196, NaN
1471305745.14, -0.00370978633873165, 0.0218781363219023, -0.00221276353113353, 33813, 32853, 23195, NaN
1471305746.14, -0.001407231669873, 0.0221991632133722, -0.0024899747222662, 33809, 32850, 23202, NaN
1471305747.14, 0.00516984751448035, 0.0221096239984035, -0.00322876241989434, 33808, 32861, 23193, NaN
1471305748.14, 0.0163168162107468, 0.0217122435569763, -0.00420217914506793, 33818, 32865, 23196, NaN
1471305748.14, 0.0311338491737843, 0.0210612937808037, -0.00348047772422433, 33801, 32846, 23211, NaN
1471305749.148, 0.0493596903979778, 0.0208090525120497, -0.00410216301679611, 33807, 32857, 23206, NaN
1471305750.148, 0.0708400756120682, 0.0201967433094978, -0.0047103725373745, 33804, 32846, 23218, NaN
1471305751.148, 0.093586340546608, 0.0196297448128462, -0.00577693432569504, 33812, 32865, 23208, NaN
1471305752.148, 0.115746259689331, 0.0197019279003143, -0.00589900184422731, 33809, 32866, 23196, NaN
1471305753.148, 0.123390570282936, 0.0195877011865377, -0.00518647441640496, 33823, 32857, 23212, NaN
1471305754.148, 0.0773822590708733, 0.020370339974761, -0.00559211382642388, 33803, 32856, 23204, NaN
1471305755.148, 0.0384128391742706, 0.0203397814184427, -0.00527557404711843, 33800, 32860, 23201, NaN
1471305756.148, 0.00590356858447194, 0.0198294259607792, -0.00535887992009521, 33803, 32848, 23207, NaN
1471305757.148, -0.0207133051007986, 0.0200985409319401, -0.00516644166782498, 33813, 32871, 23195, NaN
1471305758.148, -0.0419919677078724, 0.0202535390853882, -0.00527302222326398, 33815, 32858, 23197, NaN
1471305759.148, -0.0584704093635082, 0.0207010358572006, -0.00531432218849659, 33808, 32857, 23200, NaN
1471305760.148, -0.0706679075956345, 0.0204915255308151, -0.00585398497059941, 33809, 32859, 23210, NaN
1471305761.148, -0.0790826380252838, 0.0195842534303665, -0.00663078296929598, 33808, 32866, 23194, NaN
1471305762.148, -0.0841895341873169, 0.0197132397443056, -0.00672614527866244, 33807, 32853, 23204, NaN
1471305763.148, -0.0864384025335312, 0.0197331383824348, -0.00707694794982672, 33814, 32848, 23196, 139.309539794922
1471305764.148, -0.0862523689866066, 0.0188861154019833, -0.00643442338332534, 33813, 32868, 23195, NaN
1471305765.148, -0.0840266197919846, 0.0182109363377094, -0.00631018402054906, 33807, 32852, 23204, NaN
1471305766.148, -0.080127514898777, 0.0176430977880955, -0.00694189080968499, 33818, 32859, 23196, NaN
1471305767.148, -0.0748920440673828, 0.0179223753511906, -0.00790555868297815, 33804, 32866, 23197, NaN
1471305768.148, -0.0686275586485863, 0.0178190730512142, -0.00828106980770826, 33807, 32860, 23210, NaN
1471305769.148, -0.0616118684411049, 0.0183819588273764, -0.00859479699283838, 33807, 32851, 23204, NaN
1471305770.148, -0.0540936104953289, 0.0178107935935259, -0.00780510902404785, 33802, 32856, 23206, NaN
1471305771.158, -0.0462929159402847, 0.0174780674278736, -0.00923268776386976, 33821, 32850, 23197, NaN
1471305772.158, -0.0384022630751133, 0.0169460158795118, -0.00939108617603779, 33824, 32857, 23188, NaN
1471305772.158, -0.0305876079946756, 0.0164482705295086, -0.00990262627601624, 33815, 32859, 23208, NaN
1471305773.166, -0.0229896381497383, 0.017409885302186, -0.00961143989115953, 33812, 32865, 23192, NaN
1471305774.166, -0.0157252233475447, 0.0179405007511377, -0.00958813913166523, 33799, 32851, 23212, NaN
1471305775.166, -0.00888896360993385, 0.0182069782167673, -0.0100437626242638, 33809, 32851, 23203, NaN
1471305776.166, -0.00255483342334628, 0.0189559515565634, -0.0103483321145177, 33813, 32877, 23204, NaN
1471305776.166, 0.00322211347520351, 0.0191530641168356, -0.0102301277220249, 33801, 32859, 23206, NaN
1471305777.172, 0.00840399879962206, 0.0195400472730398, -0.0106765273958445, 33818, 32881, 23195, NaN
1471305778.172, 0.0129683706909418, 0.0197500083595514, -0.0106708016246557, 33821, 32866, 23209, NaN
1471305779.172, 0.0169064588844776, 0.0201259069144726, -0.010335398837924, 33809, 32861, 23201, NaN
1471305780.172, 0.020221471786499, 0.0199537053704262, -0.0108097065240145, 33812, 32862, 23201, NaN
1471305780.172, 0.0229249615222216, 0.0202155821025372, -0.0105490023270249, 33803, 32869, 23201, NaN
1471305781.178, 0.0240796264261007, 0.0190392732620239, -0.0100709851831198, 33824, 32863, 23201, NaN
1471305782.178, 0.0223013423383236, 0.0193086378276348, -0.0101734530180693, 33819, 32862, 23208, NaN
1471305783.178, 0.0189041662961245, 0.019322382286191, -0.0100883105769753, 33812, 32862, 23189, NaN
1471305784.178, 0.0143154170364141, 0.0194554459303617, -0.0092629250138998, 33815, 32859, 23191, NaN
1471305784.178, 0.0100541962310672, 0.0190835446119308, -0.00914216600358486, 33820, 32870, 23194, NaN
1471305785.182, 0.00655479077249765, 0.0192473269999027, -0.00854364782571793, 33819, 32856, 23199, NaN
1471305786.182, 0.00284993881359696, 0.0202027130872011, -0.00828513037413359, 33818, 32865, 23203, NaN
1471305787.182, 0.00019137813069392, 0.0203587859869003, -0.00779325002804399, 33808, 32855, 23205, NaN
1471305788.182, -0.0010682106949389, 0.0204845182597637, -0.00821915362030268, 33809, 32861, 23200, NaN
1471305788.182, -0.000751952291466296, 0.0200184676796198, -0.00842795427888632, 33814, 32858, 23203, NaN
1471305789.184, 0.000691546418238431, 0.0204714890569448, -0.00796598475426435, 33814, 32862, 23198, NaN
1471305790.184, 0.00410226127132773, 0.0204670093953609, -0.007399991620332, 33812, 32846, 23193, NaN
1471305791.184, 0.00768938148394227, 0.0208177175372839, -0.00765537563711405, 33803, 32856, 23206, NaN
1471305792.184, 0.010881781578064, 0.0202283635735512, -0.00748903769999743, 33813, 32860, 23198, NaN
1471305793.184, 0.0130776846781373, 0.0201386194676161, -0.00755489710718393, 33805, 32852, 23199, NaN
1471305794.184, 0.0152245787903666, 0.0199049301445484, -0.00721308263018727, 33799, 32863, 23214, NaN
1471305795.192, 0.0175851583480835, 0.0189002957195044, -0.00695759896188974, 33813, 32867, 23200, NaN
1471305796.192, 0.0194690097123384, 0.0185289401561022, -0.00607055332511663, 33822, 32863, 23192, NaN
1471305796.192, 0.020471028983593, 0.0184297561645508, -0.00556087167933583, 33811, 32863, 23212, NaN
1471305797.182, 0.0210858676582575, 0.0176341403275728, -0.00629591895267367, 33809, 32859, 23196, NaN
1471305798.182, 0.0221885927021503, 0.0176882743835449, -0.00677635008469224, 33818, 32863, 23210, NaN
1471305799.182, 0.0233538150787354, 0.0178892631083727, -0.00652364548295736, 33805, 32853, 23210, NaN
1471305800.182, 0.0251418091356754, 0.0185647495090961, -0.00663871178403497, 33792, 32862, 23190, NaN
1471305800.182, 0.0262740310281515, 0.0183322969824076, -0.00707306200638413, 33822, 32864, 23192, NaN
1471305801.188, 0.0277192927896976, 0.0186631679534912, -0.00709891458973289, 33812, 32863, 23218, NaN
1471305802.188, 0.0288550946861506, 0.0189341623336077, -0.0071451305411756, 33806, 32852, 23200, NaN
1471305803.188, 0.0292204339057207, 0.0188921261578798, -0.0072312830016017, 33830, 32847, 23199, NaN
1471305804.188, 0.0330975241959095, 0.0183860771358013, -0.00701861409470439, 33810, 32857, 23197, NaN
1471305805.188, 0.0442595891654491, 0.0185572002083063, -0.00687288213521242, 33821, 32867, 23195, NaN
1471305806.188, 0.0649714767932892, 0.018521498888731, -0.00589430052787066, 33806, 32846, 23198, NaN
1471305807.188, 0.0945183262228966, 0.0176114123314619, -0.00535156251862645, 33810, 32868, 23210, NaN